This demonstration page uses our WeatherBlox Daily Observations layout. Learn more.

Left ArrowRight Arrow

Hourly Observations for February 8, 2017

Temp ( °F °C ) Dew Point ( °F °C ) Humidity (%) Winds ( mph kmh ) Pressure ( in mb ) Visibility ( mi km ) Precip ( " mm )
12:53 am 00:53 Clear -15 -26.1 -20 -28.9 77 77 SW 12 19 30.29 1026 10 16 0.00 0.00
1:53 am 01:53 Clear -17 -27.2 -21 -29.4 82 82 SW 13 20 30.30 1026 10 16 0.00 0.00
2:53 am 02:53 Clear -18 -27.8 -22 -30 81 81 WNW 6 9 30.32 1027 10 16 0.00 0.00
3:53 am 03:53 Clear -19 -28.3 -23 -30.6 81 81 WNW 5 7 30.33 1027 10 16 0.00 0.00
4:53 am 04:53 Clear -21 -29.4 -24 -31.1 85 85 Calm 30.33 1027 10 16 0.00 0.00
5:53 am 05:53 Clear -21 -29.4 -24 -31.1 85 85 WNW 3 6 30.36 1028 10 16 0.00 0.00
6:53 am 06:53 Clear -18 -27.8 -21 -29.4 86 86 Calm 30.35 1028 10 16 0.00 0.00
7:53 am 07:53 Sunny -20 -28.9 -25 -31.7 77 77 Calm 30.37 1029 10 16 0.00 0.00
8:53 am 08:53 Sunny -20 -28.9 -25 -31.7 77 77 W 5 7 30.41 1030 10 16 0.00 0.00
9:53 am 09:53 Sunny -15 -26.1 -19 -28.3 82 82 WSW 6 9 30.43 1031 10 16 0.00 0.00
10:53 am 10:53 Sunny -11 -23.9 -16 -26.7 78 78 SW 10 17 30.45 1031 10 16 0.00 0.00
11:53 am 11:53 Sunny -8 -22.2 -14 -25.6 74 74 WSW 7 11 30.42 1030 10 16 0.00 0.00
12:53 pm 12:53 Sunny -4 -20 -11 -23.9 71 71 WSW 14 22 30.42 1030 10 16 0.00 0.00
1:53 pm 13:53 Sunny -4 -20 -11 -23.9 71 71 SW 16 26 30.41 1030 10 16 0.00 0.00
2:53 pm 14:53 Sunny -3 -19.4 -10 -23.3 71 71 WSW 16 26 30.40 1029 10 16 0.00 0.00
3:53 pm 15:53 Sunny -3 -19.4 -10 -23.3 71 71 SW 14 22 30.37 1029 10 16 0.00 0.00
4:53 pm 16:53 Sunny -3 -19.4 -10 -23.3 71 71 WSW 10 17 30.36 1028 10 16 0.00 0.00
5:53 pm 17:53 Clear -2 -18.9 -8 -22.2 75 75 WSW 6 9 30.34 1028 10 16 0.00 0.00
6:53 pm 18:53 Mostly Clear 0 -17.8 -8 -22.2 69 69 WSW 6 9 30.32 1027 10 16 0.00 0.00
7:53 pm 19:53 Cloudy 0 -17.8 -7 -21.7 72 72 Calm 30.29 1026 10 16 0.00 0.00
8:53 pm 20:53 Mostly Cloudy 1 -17.2 -7 -21.7 68 68 E 12 19 30.25 1024 10 16 0.00 0.00
9:53 pm 21:53 Mostly Cloudy -2 -18.9 -9 -22.8 72 72 ENE 12 19 30.21 1023 10 16 0.00 0.00
10:53 pm 22:53 Clear -3 -19.4 -9 -22.8 75 75 E 13 20 30.16 1021 10 16 0.00 0.00
11:53 pm 23:53 Clear -3 -19.4 -9 -22.8 75 75 ENE 13 20 30.13 1020 10 16 0.00 0.00

Powered by AerisWeather